| time (UTC) | temp C | wind direction | speed KPH | gust KPH | rain 1hr cm | rain 24hr cm | rain mn cm | humidity % | barometer mb |
| 20260906121009 | 22 | 86 | 0.0 | 0.0 | 0.00 | 0.00 | 0.00 | 98 | 1009.3 |
| 20260906120504 | 22 | 75 | 0.0 | 0.0 | 0.00 | 0.00 | 0.00 | 98 | 1009.4 |
| 20260906120002 | 22 | 94 | 0.0 | 0.0 | 0.00 | 0.00 | 0.00 | 98 | 1009.2 |
| 20260906115455 | 21 | 88 | 0.0 | 0.0 | 0.00 | 0.00 | 0.00 | 98 | 1009.3 |
| 20260906114950 | 21 | 82 | 0.0 | 0.0 | 0.00 | 0.00 | 0.00 | 98 | 1009.3 |
| 20260906114445 | 21 | 83 | 0.0 | 0.0 | 0.00 | 0.00 | 0.00 | 98 | 1009.0 |
| 20260906113941 | 21 | 91 | 0.0 | 0.0 | 0.00 | 0.00 | 0.00 | 98 | 1009.2 |
| 20260906113439 | 21 | 89 | 0.0 | 0.0 | 0.00 | 0.00 | 0.00 | 98 | 1008.9 |
| 20260906112935 | 21 | 88 | 0.0 | 0.0 | 0.00 | 0.00 | 0.00 | 98 | 1009.0 |
| 20260906112430 | 21 | 87 | 0.0 | 0.0 | 0.00 | 0.00 | 0.00 | 98 | 1009.2 |
| 20260906111926 | 21 | 86 | 0.0 | 0.0 | 0.00 | 0.00 | 0.00 | 98 | 1008.8 |
| 20260906111425 | 21 | 86 | 0.0 | 0.0 | 0.00 | 0.00 | 0.00 | 98 | 1008.9 |
| 20260906110920 | 21 | 85 | 0.0 | 0.0 | 0.00 | 0.00 | 0.00 | 98 | 1008.9 |
| 20260906110416 | 21 | 88 | 0.0 | 0.0 | 0.00 | 0.00 | 0.00 | 98 | 1008.8 |
| 20260906105915 | 21 | 86 | 0.0 | 0.0 | 0.00 | 0.00 | 0.00 | 98 | 1008.6 |
| 20260906105411 | 21 | 84 | 0.0 | 0.0 | 0.00 | 0.00 | 0.00 | 98 | 1008.7 |
| 20260906104906 | 21 | 82 | 0.0 | 0.0 | 0.00 | 0.00 | 0.00 | 98 | 1008.8 |
| 20260906104405 | 21 | 82 | 0.0 | 0.0 | 0.00 | 0.00 | 0.00 | 98 | 1008.5 |
| 20260906103904 | 21 | 86 | 0.0 | 0.0 | 0.00 | 0.00 | 0.00 | 98 | 1008.5 |
| 20260906103402 | 21 | 86 | 0.0 | 0.0 | 0.00 | 0.00 | 0.00 | 98 | 1008.6 |
| 20260906102858 | 21 | 86 | 0.0 | 0.0 | 0.00 | 0.00 | 0.00 | 98 | 1008.5 |
| 20260906102357 | 21 | 84 | 0.0 | 0.0 | 0.00 | 0.00 | 0.00 | 98 | 1008.5 |
| 20260906101852 | 21 | 82 | 0.0 | 0.0 | 0.00 | 0.00 | 0.00 | 98 | 1008.3 |
| 20260906101347 | 21 | 81 | 0.0 | 0.0 | 0.00 | 0.00 | 0.00 | 98 | 1008.3 |
| 20260906100843 | 21 | 83 | 0.0 | 0.0 | 0.00 | 0.00 | 0.00 | 98 | 1008.4 |
| 20260906100342 | 21 | 86 | 0.0 | 0.0 | 0.00 | 0.00 | 0.00 | 98 | 1008.4 |
| 20260906095837 | 20 | 84 | 0.0 | 0.0 | 0.00 | 0.00 | 0.00 | 98 | 1008.2 |
| 20260906095332 | 21 | 79 | 0.0 | 0.0 | 0.00 | 0.00 | 0.00 | 98 | 1008.1 |
| 20260906094831 | 21 | 82 | 0.0 | 0.0 | 0.00 | 0.00 | 0.00 | 98 | 1008.1 |
| 20260906094326 | 21 | 91 | 0.0 | 0.0 | 0.00 | 0.00 | 0.00 | 98 | 1008.1 |
| 20260906093823 | 21 | 85 | 0.0 | 0.0 | 0.00 | 0.00 | 0.00 | 98 | 1007.9 |
| 20260906093318 | 21 | 77 | 0.0 | 0.0 | 0.00 | 0.00 | 0.00 | 98 | 1008.1 |
| 20260906092813 | 21 | 81 | 0.0 | 0.0 | 0.00 | 0.00 | 0.00 | 98 | 1007.8 |
| 20260906092308 | 21 | 85 | 0.0 | 0.0 | 0.00 | 0.00 | 0.00 | 98 | 1008.1 |
| 20260906091804 | 21 | 79 | 0.0 | 0.0 | 0.00 | 0.00 | 0.00 | 98 | 1008.0 |
| 20260906091300 | 21 | 80 | 0.0 | 0.0 | 0.00 | 0.00 | 0.00 | 98 | 1008.0 |
| 20260906090756 | 21 | 99 | 0.0 | 0.0 | 0.00 | 0.00 | 0.00 | 98 | 1008.1 |
| 20260906090255 | 21 | 89 | 0.0 | 0.0 | 0.00 | 0.00 | 0.00 | 98 | 1007.8 |
| 20260906085754 | 21 | 94 | 0.0 | 0.0 | 0.00 | 0.00 | 0.00 | 98 | 1008.0 |
| 20260906085253 | 21 | 88 | 0.0 | 0.0 | 0.00 | 0.00 | 0.00 | 98 | 1007.6 |
| 20260906084748 | 21 | 88 | 0.0 | 0.0 | 0.00 | 0.00 | 0.00 | 98 | 1007.7 |
| 20260906084242 | 21 | 86 | 0.0 | 0.0 | 0.00 | 0.00 | 0.00 | 98 | 1007.7 |
| 20260906083737 | 21 | 83 | 0.0 | 0.0 | 0.00 | 0.00 | 0.00 | 98 | 1008.0 |
| 20260906083232 | 21 | 84 | 0.0 | 0.0 | 0.00 | 0.00 | 0.00 | 98 | 1007.9 |
| 20260906082727 | 21 | 71 | 0.0 | 0.0 | 0.00 | 0.00 | 0.00 | 98 | 1007.6 |
| 20260906082222 | 21 | 92 | 0.0 | 0.0 | 0.00 | 0.00 | 0.00 | 98 | 1007.8 |
| 20260906081718 | 21 | 85 | 0.0 | 0.0 | 0.00 | 0.00 | 0.00 | 98 | 1008.0 |
| 20260906081214 | 21 | 89 | 0.0 | 0.0 | 0.00 | 0.00 | 0.00 | 98 | 1007.8 |
| 20260906080710 | 21 | 83 | 0.0 | 0.0 | 0.00 | 0.00 | 0.00 | 98 | 1007.9 |
| 20260906080206 | 21 | 83 | 0.0 | 0.0 | 0.00 | 0.00 | 0.00 | 98 | 1007.7 |
| 20260906075705 | 21 | 89 | 0.0 | 0.0 | 0.00 | 0.00 | 0.00 | 98 | 1007.9 |
| 20260906075201 | 21 | 88 | 0.0 | 0.0 | 0.00 | 0.00 | 0.00 | 98 | 1007.6 |
| 20260906074656 | 21 | 84 | 0.0 | 0.0 | 0.00 | 0.00 | 0.00 | 98 | 1007.9 |
| 20260906074154 | 21 | 80 | 0.0 | 0.0 | 0.00 | 0.00 | 0.00 | 98 | 1007.9 |
| 20260906073650 | 21 | 82 | 0.0 | 0.0 | 0.00 | 0.00 | 0.00 | 98 | 1007.8 |
| 20260906073146 | 21 | 85 | 0.0 | 0.0 | 0.00 | 0.00 | 0.00 | 98 | 1007.7 |
| 20260906072640 | 21 | 87 | 0.0 | 0.0 | 0.00 | 0.00 | 0.00 | 98 | 1008.0 |
| 20260906072135 | 21 | 79 | 0.0 | 0.0 | 0.00 | 0.00 | 0.00 | 98 | 1007.7 |
| 20260906071627 | 21 | 86 | 0.0 | 0.0 | 0.00 | 0.00 | 0.00 | 98 | 1007.7 |
| 20260906071126 | 21 | 78 | 0.0 | 0.0 | 0.00 | 0.00 | 0.00 | 98 | 1007.7 |
| 20260906070623 | 21 | 84 | 0.0 | 0.0 | 0.00 | 0.00 | 0.00 | 98 | 1007.7 |
| 20260906070119 | 21 | 81 | 0.0 | 0.0 | 0.00 | 0.00 | 0.00 | 98 | 1007.7 |
| 20260906065618 | 21 | 83 | 0.0 | 0.0 | 0.00 | 0.00 | 0.00 | 98 | 1007.7 |
| 20260906065114 | 21 | 82 | 0.0 | 0.0 | 0.00 | 0.00 | 0.00 | 98 | 1008.0 |
| 20260906064609 | 21 | 82 | 0.0 | 0.0 | 0.00 | 0.00 | 0.00 | 98 | 1008.3 |
| 20260906064104 | 21 | 78 | 0.0 | 0.0 | 0.00 | 0.00 | 0.00 | 98 | 1008.3 |
| 20260906063559 | 21 | 92 | 0.0 | 0.0 | 0.00 | 0.00 | 0.00 | 98 | 1008.1 |
| 20260906063055 | 21 | 96 | 0.0 | 0.0 | 0.00 | 0.00 | 0.00 | 98 | 1008.4 |
| 20260906062551 | 21 | 83 | 0.0 | 0.0 | 0.00 | 0.00 | 0.00 | 98 | 1008.4 |
| 20260906062044 | 21 | 82 | 0.0 | 0.0 | 0.00 | 0.00 | 0.00 | 98 | 1008.2 |
| 20260906061541 | 21 | 83 | 0.0 | 0.0 | 0.00 | 0.00 | 0.00 | 98 | 1008.4 |
| 20260906061040 | 21 | 75 | 0.0 | 0.0 | 0.00 | 0.00 | 0.00 | 98 | 1008.2 |
| 20260906060537 | 21 | 86 | 0.0 | 0.0 | 0.00 | 0.00 | 0.00 | 98 | 1008.0 |
| 20260906060034 | 21 | 81 | 0.0 | 0.0 | 0.00 | 0.00 | 0.00 | 98 | 1008.1 |
| 20260906055529 | 21 | 82 | 0.0 | 0.0 | 0.00 | 0.00 | 0.00 | 98 | 1008.1 |
| 20260906055025 | 21 | 83 | 0.0 | 0.0 | 0.00 | 0.00 | 0.00 | 98 | 1008.1 |
| 20260906054524 | 21 | 83 | 0.0 | 0.0 | 0.00 | 0.00 | 0.00 | 98 | 1008.2 |
| 20260906054020 | 21 | 86 | 0.0 | 0.0 | 0.00 | 0.00 | 0.00 | 98 | 1008.2 |
| 20260906053516 | 21 | 82 | 0.0 | 0.0 | 0.00 | 0.00 | 0.00 | 98 | 1007.9 |
| 20260906053011 | 21 | 76 | 0.0 | 0.0 | 0.00 | 0.00 | 0.00 | 98 | 1007.9 |
| 20260906052507 | 22 | 81 | 0.0 | 0.0 | 0.00 | 0.00 | 0.00 | 98 | 1008.1 |
| 20260906052004 | 22 | 84 | 0.0 | 0.0 | 0.00 | 0.00 | 0.00 | 98 | 1007.9 |
| 20260906051459 | 22 | 80 | 0.0 | 0.0 | 0.00 | 0.00 | 0.00 | 98 | 1008.2 |
| 20260906050954 | 21 | 83 | 0.0 | 0.0 | 0.00 | 0.00 | 0.00 | 98 | 1008.2 |
| 20260906050453 | 21 | 81 | 0.0 | 0.0 | 0.00 | 0.00 | 0.00 | 98 | 1008.4 |
| 20260906045948 | 22 | 80 | 0.0 | 0.0 | 0.00 | 0.00 | 0.00 | 98 | 1008.3 |
| 20260906045447 | 22 | 83 | 0.0 | 0.0 | 0.00 | 0.00 | 0.00 | 98 | 1008.2 |
| 20260906044943 | 22 | 86 | 0.0 | 0.0 | 0.00 | 0.00 | 0.00 | 98 | 1008.2 |
| 20260906044438 | 22 | 80 | 0.0 | 0.0 | 0.00 | 0.00 | 0.00 | 98 | 1008.4 |
| 20260906043933 | 22 | 79 | 0.0 | 0.0 | 0.00 | 0.00 | 0.00 | 98 | 1008.6 |
| 20260906043429 | 22 | 83 | 0.0 | 0.0 | 0.00 | 0.00 | 0.00 | 98 | 1008.4 |
| 20260906042925 | 22 | 76 | 0.0 | 0.0 | 0.00 | 0.00 | 0.00 | 98 | 1008.5 |
| 20260906042424 | 22 | 77 | 0.0 | 0.0 | 0.00 | 0.00 | 0.00 | 98 | 1008.3 |
| 20260906041919 | 22 | 83 | 0.0 | 0.0 | 0.00 | 0.00 | 0.00 | 98 | 1008.2 |
| 20260906041415 | 22 | 73 | 0.0 | 0.0 | 0.00 | 0.00 | 0.00 | 98 | 1008.2 |
| 20260906040915 | 22 | 49 | 1.6 | 1.6 | 0.00 | 0.00 | 0.00 | 98 | 1008.6 |
| 20260906040410 | 22 | 80 | 0.0 | 0.0 | 0.00 | 0.00 | 0.00 | 98 | 1008.2 |
| 20260906035905 | 22 | 74 | 0.0 | 0.0 | 0.00 | 0.81 | 0.81 | 98 | 1008.1 |
| 20260906035401 | 22 | 59 | 0.0 | 1.6 | 0.00 | 0.81 | 0.81 | 97 | 1008.2 |
| 20260906034855 | 22 | 77 | 0.0 | 0.0 | 0.00 | 0.81 | 0.81 | 98 | 1008.5 |
| 20260906034350 | 22 | 78 | 0.0 | 0.0 | 0.00 | 0.81 | 0.81 | 97 | 1008.3 |
| 20260906033846 | 22 | 68 | 0.0 | 0.0 | 0.00 | 0.81 | 0.81 | 97 | 1008.1 |
| 20260906033345 | 22 | 71 | 0.0 | 0.0 | 0.00 | 0.81 | 0.81 | 97 | 1008.6 |
| 20260906032842 | 22 | 74 | 0.0 | 0.0 | 0.00 | 0.81 | 0.81 | 97 | 1008.6 |
| 20260906032337 | 22 | 78 | 0.0 | 0.0 | 0.00 | 0.81 | 0.81 | 97 | 1008.5 |
| 20260906031832 | 22 | 71 | 0.0 | 0.0 | 0.00 | 0.81 | 0.81 | 97 | 1008.4 |
| 20260906031328 | 22 | 72 | 0.0 | 0.0 | 0.00 | 0.81 | 0.81 | 97 | 1008.7 |
| 20260906030827 | 22 | 83 | 0.0 | 0.0 | 0.00 | 0.81 | 0.81 | 97 | 1008.9 |
| 20260906030323 | 22 | 72 | 0.0 | 0.0 | 0.00 | 0.81 | 0.81 | 97 | 1008.7 |
| 20260906025817 | 22 | 84 | 0.0 | 0.0 | 0.00 | 0.81 | 0.81 | 97 | 1008.7 |
| 20260906025311 | 22 | 89 | 0.0 | 0.0 | 0.00 | 0.81 | 0.81 | 97 | 1008.8 |
| 20260906024810 | 22 | 89 | 0.0 | 0.0 | 0.00 | 0.81 | 0.81 | 97 | 1008.8 |
| 20260906024309 | 22 | 79 | 0.0 | 0.0 | 0.00 | 0.81 | 0.81 | 96 | 1008.8 |
| 20260906023805 | 22 | 84 | 0.0 | 0.0 | 0.00 | 0.81 | 0.81 | 96 | 1008.8 |
| 20260906023300 | 22 | 90 | 0.0 | 0.0 | 0.00 | 0.81 | 0.81 | 96 | 1009.1 |
| 20260906022756 | 22 | 92 | 0.0 | 0.0 | 0.00 | 0.81 | 0.81 | 96 | 1008.9 |
| 20260906022251 | 22 | 81 | 0.0 | 0.0 | 0.00 | 0.81 | 0.81 | 95 | 1009.1 |
| 20260906021747 | 22 | 87 | 0.0 | 0.0 | 0.00 | 0.81 | 0.81 | 95 | 1009.1 |
| 20260906021246 | 22 | 78 | 0.0 | 0.0 | 0.00 | 0.81 | 0.81 | 95 | 1008.9 |
| 20260906020740 | 22 | 82 | 0.0 | 0.0 | 0.00 | 0.81 | 0.81 | 94 | 1009.1 |
| 20260906020235 | 22 | 85 | 0.0 | 0.0 | 0.00 | 0.81 | 0.81 | 94 | 1009.2 |
| 20260906015729 | 22 | 87 | 0.0 | 0.0 | 0.00 | 0.81 | 0.81 | 93 | 1009.0 |
| 20260906015228 | 22 | 77 | 0.0 | 0.0 | 0.00 | 0.81 | 0.81 | 93 | 1009.0 |
| 20260906014722 | 22 | 107 | 3.2 | 3.2 | 0.00 | 0.81 | 0.81 | 93 | 1009.1 |
| 20260906014218 | 22 | 86 | 0.0 | 0.0 | 0.00 | 0.81 | 0.81 | 92 | 1009.3 |
| 20260906013715 | 22 | 85 | 0.0 | 0.0 | 0.00 | 0.81 | 0.81 | 92 | 1009.3 |
| 20260906013214 | 22 | 92 | 0.0 | 0.0 | 0.00 | 0.81 | 0.81 | 92 | 1009.1 |
| 20260906012709 | 22 | 93 | 0.0 | 0.0 | 0.00 | 0.81 | 0.81 | 92 | 1009.0 |
| 20260906012204 | 22 | 84 | 0.0 | 0.0 | 0.00 | 0.81 | 0.81 | 92 | 1009.0 |
| 20260906011659 | 22 | 88 | 0.0 | 0.0 | 0.00 | 0.81 | 0.81 | 92 | 1009.3 |
| 20260906011154 | 22 | 95 | 0.0 | 0.0 | 0.00 | 0.81 | 0.81 | 91 | 1009.0 |
| 20260906010649 | 22 | 101 | 0.0 | 0.0 | 0.00 | 0.81 | 0.81 | 91 | 1008.9 |
| 20260906010146 | 22 | 93 | 0.0 | 0.0 | 0.00 | 0.81 | 0.81 | 91 | 1008.9 |
| 20260906005645 | 22 | 78 | 0.0 | 0.0 | 0.00 | 0.81 | 0.81 | 90 | 1008.9 |
| 20260906005144 | 22 | 138 | 4.8 | 8.0 | 0.00 | 0.81 | 0.81 | 90 | 1008.8 |
| 20260906004643 | 22 | 105 | 0.0 | 0.0 | 0.00 | 0.81 | 0.81 | 90 | 1008.9 |
| 20260906004139 | 22 | 92 | 0.0 | 1.6 | 0.00 | 0.81 | 0.81 | 89 | 1009.4 |
| 20260906003634 | 22 | 92 | 0.0 | 0.0 | 0.13 | 0.81 | 0.81 | 89 | 1009.4 |
| 20260906003130 | 22 | 90 | 0.0 | 0.0 | 0.13 | 0.81 | 0.81 | 89 | 1009.7 |
| 20260906002624 | 22 | 74 | 0.0 | 0.0 | 0.18 | 0.79 | 0.79 | 89 | 1009.5 |
| 20260906002119 | 22 | 83 | 0.0 | 0.0 | 0.18 | 0.79 | 0.79 | 88 | 1009.6 |
| 20260906001609 | 22 | 94 | 0.0 | 0.0 | 0.00 | 0.76 | 0.76 | 88 | 1009.4 |
| 20260906001109 | 22 | 80 | 0.0 | 0.0 | 0.00 | 0.76 | 0.76 | 88 | 1009.2 |
| 20260906000605 | 22 | 65 | 0.0 | 0.0 | 0.00 | 0.76 | 0.76 | 87 | 1009.3 |
| 20260906000100 | 22 | 81 | 0.0 | 0.0 | 0.00 | 0.76 | 0.76 | 87 | 1008.4 |
| 20260905235559 | 22 | 116 | 3.2 | 3.2 | 0.00 | 0.76 | 0.76 | 86 | 1008.6 |
| 20260905235054 | 22 | 86 | 0.0 | 0.0 | 0.00 | 0.76 | 0.76 | 86 | 1008.4 |
| 20260905234549 | 22 | 86 | 0.0 | 0.0 | 0.00 | 0.76 | 0.76 | 86 | 1008.3 |
| 20260905234045 | 22 | 86 | 0.0 | 0.0 | 0.00 | 0.76 | 0.76 | 86 | 1008.5 |
| 20260905233544 | 22 | 87 | 0.0 | 0.0 | 0.00 | 0.76 | 0.76 | 85 | 1008.4 |
| 20260905233044 | 22 | 85 | 0.0 | 0.0 | 0.00 | 0.76 | 0.76 | 85 | 1008.3 |
| 20260905232540 | 22 | 78 | 0.0 | 0.0 | 0.13 | 0.76 | 0.76 | 84 | 1008.6 |
| 20260905232035 | 22 | 73 | 0.0 | 1.6 | 0.13 | 0.76 | 0.76 | 84 | 1008.7 |
| 20260905231530 | 22 | 118 | 1.6 | 1.6 | 0.18 | 0.74 | 0.74 | 83 | 1008.7 |
| 20260905231027 | 22 | 36 | 3.2 | 3.2 | 0.00 | 0.71 | 0.71 | 83 | 1008.5 |
| 20260905230526 | 22 | 87 | 0.0 | 0.0 | 0.00 | 0.71 | 0.71 | 82 | 1008.1 |
| 20260905230024 | 22 | 70 | 0.0 | 0.0 | 0.13 | 0.71 | 0.71 | 81 | 1008.2 |
| 20260905225519 | 22 | 79 | 0.0 | 0.0 | 0.30 | 0.71 | 0.71 | 80 | 1007.8 |
| 20260905225015 | 22 | 46 | 3.2 | 3.2 | 0.48 | 0.69 | 0.69 | 79 | 1007.8 |
| 20260905224509 | 22 | 137 | 1.6 | 1.6 | 0.61 | 0.66 | 0.66 | 78 | 1008.0 |
| 20260905224009 | 22 | 105 | 1.6 | 1.6 | 3.35 | 0.61 | 0.61 | 76 | 1007.6 |
| 20260905223507 | 23 | 320 | 3.2 | 4.8 | 3.17 | 0.53 | 0.53 | 75 | 1007.5 |
| 20260905223002 | 26 | 9 | 11.3 | 14.5 | 0.79 | 0.13 | 0.13 | 68 | 1007.7 |
| 20260905222502 | 27 | 300 | 9.7 | 12.9 | 0.00 | 0.00 | 0.00 | 60 | 1007.3 |
| 20260905221957 | 28 | 36 | 12.9 | 24.1 | 0.00 | 0.00 | 0.00 | 57 | 1006.8 |
| 20260905221454 | 30 | 338 | 16.1 | 20.9 | 0.00 | 0.00 | 0.00 | 57 | 1006.7 |
| 20260905220949 | 32 | 6 | 8.0 | 9.7 | 0.00 | 0.00 | 0.00 | 71 | 1006.5 |
| 20260905220445 | 32 | 71 | 0.0 | 1.6 | 0.00 | 0.00 | 0.00 | 70 | 1006.2 |
| 20260905215944 | 32 | 351 | 4.8 | 4.8 | 0.00 | 0.00 | 0.00 | 69 | 1006.4 |
| 20260905215440 | 32 | 83 | 0.0 | 0.0 | 0.00 | 0.00 | 0.00 | 68 | 1006.2 |
| 20260905214936 | 32 | 97 | 1.6 | 1.6 | 0.00 | 0.00 | 0.00 | 66 | 1007.1 |
| 20260905214431 | 33 | 99 | 1.6 | 1.6 | 0.00 | 0.00 | 0.00 | 64 | 1006.7 |
| 20260905213926 | 33 | 86 | 0.0 | 0.0 | 0.00 | 0.00 | 0.00 | 63 | 1006.3 |
| 20260905213422 | 33 | 77 | 1.6 | 3.2 | 0.00 | 0.00 | 0.00 | 62 | 1006.2 |
| 20260905212917 | 34 | 5 | 0.0 | 0.0 | 0.00 | 0.00 | 0.00 | 61 | 1006.3 |
| 20260905212412 | 35 | 336 | 4.8 | 4.8 | 0.00 | 0.00 | 0.00 | 59 | 1006.1 |
| 20260905211911 | 35 | 6 | 3.2 | 4.8 | 0.00 | 0.00 | 0.00 | 59 | 1005.9 |
| 20260905211407 | 35 | 29 | 1.6 | 1.6 | 0.00 | 0.00 | 0.00 | 59 | 1006.2 |
| 20260905210902 | 35 | 346 | 0.0 | 1.6 | 0.00 | 0.00 | 0.00 | 59 | 1006.1 |
| 20260905210357 | 35 | 56 | 1.6 | 3.2 | 0.00 | 0.00 | 0.00 | 59 | 1005.9 |
| 20260905205856 | 36 | 20 | 3.2 | 3.2 | 0.00 | 0.00 | 0.00 | 59 | 1005.8 |
| 20260905205351 | 36 | 71 | 0.0 | 0.0 | 0.00 | 0.00 | 0.00 | 58 | 1005.9 |
| 20260905204850 | 35 | 83 | 1.6 | 3.2 | 0.00 | 0.00 | 0.00 | 60 | 1006.1 |
| 20260905204347 | 35 | 35 | 1.6 | 3.2 | 0.00 | 0.00 | 0.00 | 60 | 1005.9 |
| 20260905203845 | 35 | 67 | 1.6 | 1.6 | 0.00 | 0.00 | 0.00 | 61 | 1005.8 |
| 20260905203341 | 35 | 62 | 1.6 | 1.6 | 0.00 | 0.00 | 0.00 | 61 | 1005.8 |
| 20260905202837 | 35 | 57 | 1.6 | 1.6 | 0.00 | 0.00 | 0.00 | 60 | 1006.1 |
| 20260905202331 | 35 | 49 | 1.6 | 1.6 | 0.00 | 0.00 | 0.00 | 60 | 1006.0 |
| 20260905201827 | 35 | 44 | 3.2 | 3.2 | 0.00 | 0.00 | 0.00 | 60 | 1006.1 |
| 20260905201322 | 34 | 4 | 3.2 | 3.2 | 0.00 | 0.00 | 0.00 | 62 | 1006.0 |
| 20260905200816 | 33 | 60 | 0.0 | 0.0 | 0.00 | 0.00 | 0.00 | 67 | 1006.3 |
| 20260905200312 | 33 | 79 | 0.0 | 0.0 | 0.00 | 0.00 | 0.00 | 67 | 1006.0 |
| 20260905195810 | 33 | 73 | 0.0 | 0.0 | 0.00 | 0.00 | 0.00 | 66 | 1006.3 |
| 20260905195306 | 33 | 73 | 0.0 | 0.0 | 0.00 | 0.00 | 0.00 | 65 | 1006.3 |
| 20260905194801 | 33 | 78 | 0.0 | 0.0 | 0.00 | 0.00 | 0.00 | 65 | 1006.2 |
| 20260905194255 | 34 | 65 | 1.6 | 3.2 | 0.00 | 0.00 | 0.00 | 64 | 1006.5 |
| 20260905193754 | 33 | 5 | 3.2 | 3.2 | 0.00 | 0.00 | 0.00 | 65 | 1006.6 |
| 20260905193249 | 33 | 350 | 3.2 | 4.8 | 0.00 | 0.00 | 0.00 | 67 | 1006.8 |
| 20260905192739 | 33 | 77 | 0.0 | 0.0 | 0.00 | 0.00 | 0.00 | 64 | 1006.6 |
| 20260905192235 | 34 | 66 | 1.6 | 1.6 | 0.00 | 0.00 | 0.00 | 62 | 1006.6 |
| 20260905191734 | 34 | 75 | 0.0 | 0.0 | 0.00 | 0.00 | 0.00 | 61 | 1006.7 |
| 20260905191233 | 35 | 348 | 4.8 | 8.0 | 0.00 | 0.00 | 0.00 | 60 | 1006.9 |
| 20260905190732 | 35 | 54 | 1.6 | 1.6 | 0.00 | 0.00 | 0.00 | 61 | 1007.0 |
| 20260905190231 | 35 | 23 | 1.6 | 1.6 | 0.00 | 0.00 | 0.00 | 58 | 1007.2 |
| 20260905185730 | 35 | 47 | 3.2 | 3.2 | 0.00 | 0.00 | 0.00 | 60 | 1007.1 |
| 20260905185225 | 34 | 34 | 3.2 | 3.2 | 0.00 | 0.00 | 0.00 | 61 | 1007.2 |
| 20260905184719 | 35 | 60 | 3.2 | 4.8 | 0.00 | 0.00 | 0.00 | 60 | 1007.3 |
| 20260905184218 | 35 | 332 | 3.2 | 3.2 | 0.00 | 0.00 | 0.00 | 60 | 1007.4 |
| 20260905183717 | 35 | 51 | 1.6 | 1.6 | 0.00 | 0.00 | 0.00 | 60 | 1007.5 |
| 20260905183213 | 36 | 87 | 1.6 | 1.6 | 0.00 | 0.00 | 0.00 | 57 | 1007.3 |
| 20260905182712 | 35 | 67 | 0.0 | 1.6 | 0.00 | 0.00 | 0.00 | 58 | 1007.3 |
| 20260905182207 | 35 | 65 | 4.8 | 4.8 | 0.00 | 0.00 | 0.00 | 58 | 1007.4 |
| 20260905181702 | 35 | 56 | 1.6 | 3.2 | 0.00 | 0.00 | 0.00 | 59 | 1007.7 |
| 20260905181201 | 35 | 323 | 1.6 | 3.2 | 0.00 | 0.00 | 0.00 | 60 | 1007.8 |
| 20260905180655 | 35 | 331 | 6.4 | 8.0 | 0.00 | 0.00 | 0.00 | 58 | 1007.7 |
| 20260905180151 | 35 | 83 | 1.6 | 3.2 | 0.00 | 0.00 | 0.00 | 59 | 1008.0 |
| 20260905175650 | 35 | 313 | 3.2 | 3.2 | 0.00 | 0.00 | 0.00 | 58 | 1008.3 |
| 20260905175146 | 35 | 51 | 1.6 | 3.2 | 0.00 | 0.00 | 0.00 | 59 | 1008.1 |
| 20260905174641 | 35 | 60 | 1.6 | 3.2 | 0.00 | 0.00 | 0.00 | 58 | 1008.0 |
| 20260905174137 | 35 | 336 | 3.2 | 4.8 | 0.00 | 0.00 | 0.00 | 58 | 1008.3 |
| 20260905173632 | 34 | 76 | 0.0 | 1.6 | 0.00 | 0.00 | 0.00 | 59 | 1008.2 |
| 20260905173128 | 34 | 65 | 3.2 | 4.8 | 0.00 | 0.00 | 0.00 | 60 | 1008.4 |
| 20260905172627 | 34 | 333 | 3.2 | 4.8 | 0.00 | 0.00 | 0.00 | 60 | 1008.4 |
| 20260905172122 | 34 | 326 | 1.6 | 3.2 | 0.00 | 0.00 | 0.00 | 60 | 1008.4 |
| 20260905171618 | 34 | 150 | 3.2 | 4.8 | 0.00 | 0.00 | 0.00 | 60 | 1008.4 |
| 20260905171114 | 34 | 349 | 4.8 | 8.0 | 0.00 | 0.00 | 0.00 | 63 | 1008.4 |
| 20260905170610 | -17 | 0.0 | 0.0 | 0.00 | 0.00 | 0.00 | 1008.4 | ||
| 20260905170105 | 33 | 341 | 4.8 | 4.8 | 0.00 | 0.00 | 0.00 | 64 | 1008.5 |
| 20260905165559 | 33 | 341 | 4.8 | 4.8 | 0.00 | 0.00 | 0.00 | 64 | 1008.5 |
| 20260905165054 | 33 | 75 | 1.6 | 3.2 | 0.00 | 0.00 | 0.00 | 63 | 1008.7 |
| 20260905164549 | 33 | 66 | 4.8 | 4.8 | 0.00 | 0.00 | 0.00 | 63 | 1008.9 |
| 20260905164044 | -17 | 0.0 | 0.0 | 0.00 | 0.00 | 0.00 | 1009.1 | ||
| 20260905163541 | 33 | 307 | 4.8 | 8.0 | 0.00 | 0.00 | 0.00 | 64 | 1009.1 |
| 20260905163036 | 33 | 307 | 4.8 | 8.0 | 0.00 | 0.00 | 0.00 | 64 | 1009.0 |
| 20260905162533 | -17 | 0.0 | 0.0 | 0.00 | 0.00 | 0.00 | 1009.2 | ||
| 20260905162026 | 33 | 91 | 1.6 | 1.6 | 0.00 | 0.00 | 0.00 | 65 | 1009.1 |
| 20260905161520 | 33 | 91 | 1.6 | 1.6 | 0.00 | 0.00 | 0.00 | 65 | 1009.3 |
| 20260905161018 | 33 | 91 | 1.6 | 1.6 | 0.00 | 0.00 | 0.00 | 65 | 1009.4 |
| 20260905160512 | 32 | 93 | 4.8 | 4.8 | 0.00 | 0.00 | 0.00 | 66 | 1009.4 |
| 20260905160011 | 32 | 342 | 6.4 | 8.0 | 0.00 | 0.00 | 0.00 | 66 | 1009.4 |
| 20260905155506 | 32 | 157 | 6.4 | 9.7 | 0.00 | 0.00 | 0.00 | 67 | 1009.5 |
| 20260905155004 | 32 | 320 | 11.3 | 12.9 | 0.00 | 0.00 | 0.00 | 66 | 1009.7 |
| 20260905154500 | 32 | 2 | 4.8 | 8.0 | 0.00 | 0.00 | 0.00 | 67 | 1009.5 |
| 20260905153955 | 32 | 320 | 1.6 | 3.2 | 0.00 | 0.00 | 0.00 | 67 | 1009.8 |
| 20260905153451 | 32 | 219 | 4.8 | 8.0 | 0.00 | 0.00 | 0.00 | 67 | 1009.8 |
| 20260905152950 | 32 | 126 | 1.6 | 3.2 | 0.00 | 0.00 | 0.00 | 68 | 1009.7 |
| 20260905152445 | 32 | 348 | 4.8 | 4.8 | 0.00 | 0.00 | 0.00 | 69 | 1009.6 |
| 20260905151939 | 32 | 358 | 6.4 | 8.0 | 0.00 | 0.00 | 0.00 | 68 | 1009.9 |
| 20260905151435 | 32 | 308 | 6.4 | 9.7 | 0.00 | 0.00 | 0.00 | 69 | 1009.8 |
| 20260905150931 | 32 | 311 | 6.4 | 9.7 | 0.00 | 0.00 | 0.00 | 70 | 1009.9 |
| 20260905150430 | 32 | 341 | 3.2 | 3.2 | 0.00 | 0.00 | 0.00 | 70 | 1010.0 |
| 20260905145926 | 31 | 18 | 3.2 | 4.8 | 0.00 | 0.00 | 0.00 | 70 | 1009.9 |
| 20260905145421 | 31 | 325 | 3.2 | 4.8 | 0.00 | 0.00 | 0.00 | 71 | 1010.0 |
| 20260905144915 | 31 | 328 | 3.2 | 3.2 | 0.00 | 0.00 | 0.00 | 71 | 1010.0 |
| 20260905144411 | 31 | 11 | 6.4 | 9.7 | 0.00 | 0.00 | 0.00 | 72 | 1010.0 |
| 20260905143909 | 31 | 32 | 3.2 | 3.2 | 0.00 | 0.00 | 0.00 | 73 | 1010.0 |
| 20260905143404 | 31 | 39 | 4.8 | 4.8 | 0.00 | 0.00 | 0.00 | 73 | 1010.1 |
| 20260905142903 | 30 | 327 | 4.8 | 4.8 | 0.00 | 0.00 | 0.00 | 74 | 1010.1 |
| 20260905142401 | 30 | 322 | 3.2 | 3.2 | 0.00 | 0.00 | 0.00 | 75 | 1010.1 |
| 20260905141858 | 30 | 58 | 1.6 | 1.6 | 0.00 | 0.00 | 0.00 | 75 | 1010.0 |
| 20260905141353 | 30 | 111 | 1.6 | 1.6 | 0.00 | 0.00 | 0.00 | 76 | 1009.9 |
| 20260905140849 | 30 | 50 | 1.6 | 3.2 | 0.00 | 0.00 | 0.00 | 77 | 1010.1 |
| 20260905140349 | 30 | 328 | 3.2 | 3.2 | 0.00 | 0.00 | 0.00 | 77 | 1010.0 |
| 20260905135847 | 29 | 39 | 3.2 | 3.2 | 0.00 | 0.00 | 0.00 | 78 | 1010.0 |
| 20260905135343 | 29 | 331 | 3.2 | 4.8 | 0.00 | 0.00 | 0.00 | 79 | 1010.1 |
| 20260905134839 | 29 | 329 | 4.8 | 8.0 | 0.00 | 0.00 | 0.00 | 80 | 1010.2 |
| 20260905134337 | 28 | 44 | 1.6 | 3.2 | 0.00 | 0.00 | 0.00 | 80 | 1010.0 |
| 20260905133833 | 28 | 26 | 3.2 | 3.2 | 0.00 | 0.00 | 0.00 | 81 | 1010.2 |
| 20260905133328 | 28 | 37 | 0.0 | 1.6 | 0.00 | 0.00 | 0.00 | 82 | 1010.3 |
| 20260905132827 | 28 | 333 | 1.6 | 3.2 | 0.00 | 0.00 | 0.00 | 83 | 1010.3 |
| 20260905132323 | 28 | 44 | 1.6 | 3.2 | 0.00 | 0.00 | 0.00 | 84 | 1010.3 |
| 20260905131817 | 27 | 356 | 3.2 | 3.2 | 0.00 | 0.00 | 0.00 | 84 | 1010.3 |
| 20260905131313 | 27 | 319 | 4.8 | 4.8 | 0.00 | 0.00 | 0.00 | 85 | 1010.2 |
| 20260905130808 | 27 | 34 | 1.6 | 1.6 | 0.00 | 0.00 | 0.00 | 87 | 1010.2 |
| 20260905130306 | 27 | 347 | 1.6 | 3.2 | 0.00 | 0.00 | 0.00 | 88 | 1010.3 |
| 20260905125802 | 26 | 43 | 1.6 | 3.2 | 0.00 | 0.00 | 0.00 | 90 | 1010.7 |
| 20260905125256 | 26 | 134 | 1.6 | 3.2 | 0.00 | 0.00 | 0.00 | 91 | 1010.5 |
| 20260905124753 | 26 | 333 | 6.4 | 9.7 | 0.00 | 0.00 | 0.00 | 91 | 1010.6 |
| 20260905124249 | 26 | 359 | 3.2 | 4.8 | 0.00 | 0.00 | 0.00 | 91 | 1010.5 |
| 20260905123744 | 26 | 26 | 1.6 | 1.6 | 0.00 | 0.00 | 0.00 | 92 | 1010.5 |
| 20260905123241 | 26 | 16 | 3.2 | 3.2 | 0.00 | 0.00 | 0.00 | 92 | 1010.3 |
| 20260905122740 | 25 | 82 | 0.0 | 1.6 | 0.00 | 0.00 | 0.00 | 92 | 1010.6 |
| 20260905122234 | 25 | 345 | 3.2 | 4.8 | 0.00 | 0.00 | 0.00 | 92 | 1010.2 |
| 20260905121730 | 25 | 73 | 3.2 | 4.8 | 0.00 | 0.00 | 0.00 | 92 | 1010.3 |
| 20260905121226 | 25 | 15 | 1.6 | 3.2 | 0.00 | 0.00 | 0.00 | 92 | 1010.4 |